Time,TemperatureF,DewpointF,PressureIn,WindDirection,WindDirectionDegrees,WindSpeedMPH,WindSpeedGustMPH,Humidity,HourlyPrecipIn,Conditions,Clouds,dailyrainin,SoftwareType,DateUTC
2013-05-23 00:00:00,49.3,32.0,30.58,West,259,3.0,5.0,14,0.00,BC,SCT,0.00,Misterhouse,2013-05-23 07:00:00,
2013-05-23 00:05:00,49.3,32.0,30.58,WSW,255,0.0,4.0,14,0.00,BC,SCT,0.00,Misterhouse,2013-05-23 07:05:00,
2013-05-23 00:10:00,49.1,32.0,30.58,WSW,247,3.0,3.0,14,0.00,BC,SCT,0.00,Misterhouse,2013-05-23 07:10:00,
2013-05-23 00:15:00,49.6,32.0,30.58,West,265,5.0,5.0,14,0.00,BC,SCT,0.00,Misterhouse,2013-05-23 07:15:00,
2013-05-23 00:20:00,49.8,32.0,30.58,WSW,256,0.0,0.0,14,0.00,BC,SCT,0.00,Misterhouse,2013-05-23 07:20:00,
2013-05-23 00:25:00,49.5,32.0,30.58,WSW,254,3.0,0.0,14,0.00,BC,SCT,0.00,Misterhouse,2013-05-23 07:25:00,
2013-05-23 00:30:00,49.6,32.0,30.58,WSW,256,0.0,0.0,14,0.00,BC,SCT,0.00,Misterhouse,2013-05-23 07:30:00,
2013-05-23 00:35:00,49.6,32.0,30.58,WSW,243,5.0,5.0,14,0.00,BC,SCT,0.00,Misterhouse,2013-05-23 07:35:00,
2013-05-23 00:40:00,49.5,32.0,30.58,WNW,285,7.0,11.0,14,0.00,BC,SCT,0.00,Misterhouse,2013-05-23 07:40:00,
2013-05-23 00:45:00,50.4,32.0,30.55,WSW,258,6.0,6.0,14,0.00,BC,SCT,0.00,Misterhouse,2013-05-23 07:45:00,
2013-05-23 00:50:00,50.2,32.0,30.55,West,270,4.0,5.0,14,0.00,BC,SCT,0.00,Misterhouse,2013-05-23 07:50:00,
2013-05-23 00:55:00,50.9,32.0,30.55,WSW,255,5.0,7.0,14,0.00,BC,SCT,0.00,Misterhouse,2013-05-23 07:55:00,
2013-05-23 01:00:00,50.9,32.0,30.55,WNW,283,5.0,6.0,14,0.00,BC,SCT,0.00,Misterhouse,2013-05-23 08:00:00,
2013-05-23 01:05:00,51.4,32.0,30.55,West,270,8.0,11.0,14,0.00,BC,SCT,0.00,Misterhouse,2013-05-23 08:05:00,
2013-05-23 01:10:00,51.3,32.0,30.55,WSW,240,8.0,8.0,14,0.00,BC,SCT,0.00,Misterhouse,2013-05-23 08:10:00,
2013-05-23 01:15:00,50.9,32.0,30.55,West,276,6.0,10.0,14,0.00,BC,SCT,0.00,Misterhouse,2013-05-23 08:15:00,
2013-05-23 01:20:00,51.1,32.0,30.55,SW,226,7.0,8.0,14,0.00,BC,SCT,0.00,Misterhouse,2013-05-23 08:20:00,
2013-05-23 01:25:00,51.3,32.0,30.55,West,260,7.0,9.0,14,0.00,BC,SCT,0.00,Misterhouse,2013-05-23 08:25:00,
2013-05-23 01:30:00,51.3,32.0,30.55,SSW,196,7.0,9.0,14,0.00,BC,SCT,0.00,Misterhouse,2013-05-23 08:30:00,
2013-05-23 01:35:00,51.3,32.0,30.55,SW,216,8.0,8.0,14,0.00,BC,SCT,0.00,Misterhouse,2013-05-23 08:35:00,
2013-05-23 01:40:00,51.1,32.0,30.55,West,266,7.0,7.0,14,0.00,BC,SCT,0.00,Misterhouse,2013-05-23 08:40:00,
2013-05-23 01:45:00,50.7,32.0,30.55,SW,227,6.0,10.0,14,0.00,BC,SCT,0.00,Misterhouse,2013-05-23 08:45:00,
2013-05-23 01:50:00,51.1,32.0,30.55,SW,233,8.0,9.0,14,0.00,BC,SCT,0.00,Misterhouse,2013-05-23 08:50:00,
2013-05-23 01:55:00,51.1,32.0,30.55,SW,214,8.0,8.0,14,0.00,BC,SCT,0.00,Misterhouse,2013-05-23 08:55:00,
2013-05-23 02:00:00,50.9,32.0,30.55,WSW,256,5.0,5.0,14,0.00,BC,SCT,0.00,Misterhouse,2013-05-23 09:00:00,
2013-05-23 02:05:00,51.1,32.0,30.55,West,270,8.0,10.0,14,0.00,BC,SCT,0.00,Misterhouse,2013-05-23 09:05:00,
2013-05-23 02:10:00,50.9,32.0,30.55,WSW,258,5.0,5.0,14,0.00,BC,SCT,0.00,Misterhouse,2013-05-23 09:10:00,
2013-05-23 02:15:00,50.9,32.0,30.55,WSW,247,8.0,8.0,14,0.00,BC,SCT,0.00,Misterhouse,2013-05-23 09:15:00,
2013-05-23 02:20:00,50.5,32.0,30.55,WSW,241,5.0,9.0,14,0.00,BC,SCT,0.00,Misterhouse,2013-05-23 09:20:00,
2013-05-23 02:25:00,50.2,32.0,30.55,SSW,208,5.0,5.0,14,0.00,BC,SCT,0.00,Misterhouse,2013-05-23 09:25:00,
2013-05-23 02:30:00,50.2,32.0,30.55,SW,228,6.0,6.0,14,0.00,BC,SCT,0.00,Misterhouse,2013-05-23 09:30:00,
2013-05-23 02:35:00,50.0,32.0,30.55,WSW,256,4.0,10.0,14,0.00,BC,SCT,0.00,Misterhouse,2013-05-23 09:35:00,
2013-05-23 02:40:00,50.2,32.0,30.55,West,264,7.0,9.0,14,0.00,BC,SCT,0.00,Misterhouse,2013-05-23 09:40:00,
2013-05-23 02:45:00,50.2,32.0,30.55,West,278,6.0,6.0,14,0.00,BC,SCT,0.00,Misterhouse,2013-05-23 09:45:00,
2013-05-23 02:50:00,49.8,32.0,30.55,WSW,247,4.0,4.0,14,0.00,BC,SCT,0.00,Misterhouse,2013-05-23 09:50:00,
2013-05-23 02:55:00,49.6,32.0,30.55,WSW,244,4.0,4.0,14,0.00,BC,SCT,0.00,Misterhouse,2013-05-23 09:55:00,
2013-05-23 03:00:00,49.5,32.0,30.55,WSW,251,6.0,6.0,14,0.00,BC,SCT,0.00,Misterhouse,2013-05-23 10:00:00,
2013-05-23 03:05:00,49.6,32.0,30.55,West,276,8.0,9.0,14,0.00,BC,SCT,0.00,Misterhouse,2013-05-23 10:05:00,
2013-05-23 03:10:00,49.6,32.0,30.55,West,274,7.0,7.0,14,0.00,BC,SCT,0.00,Misterhouse,2013-05-23 10:10:00,
2013-05-23 03:25:00,48.7,32.0,30.55,West,261,5.0,6.0,14,0.00,BC,SCT,0.00,Misterhouse,2013-05-23 10:25:00,
2013-05-23 03:30:00,48.7,32.0,30.55,West,277,8.0,8.0,14,0.00,BC,SCT,0.00,Misterhouse,2013-05-23 10:30:00,
2013-05-23 03:35:00,49.1,32.0,30.55,WNW,286,9.0,9.0,14,0.00,BC,SCT,0.00,Misterhouse,2013-05-23 10:35:00,
2013-05-23 03:40:00,49.1,32.0,30.55,WSW,251,8.0,8.0,14,0.00,BC,SCT,0.00,Misterhouse,2013-05-23 10:40:00,
2013-05-23 03:45:00,49.1,32.0,30.55,West,263,5.0,7.0,14,0.00,BC,SCT,0.00,Misterhouse,2013-05-23 10:45:00,
2013-05-23 03:50:00,48.9,32.0,30.55,West,278,7.0,7.0,14,0.00,BC,SCT,0.00,Misterhouse,2013-05-23 10:50:00,
2013-05-23 03:55:00,48.9,32.0,30.55,WSW,256,6.0,7.0,14,0.00,BC,SCT,0.00,Misterhouse,2013-05-23 10:55:00,
2013-05-23 04:05:00,48.6,32.0,30.55,West,274,7.0,7.0,14,0.00,BC,SCT,0.00,Misterhouse,2013-05-23 11:05:00,
2013-05-23 04:10:00,48.4,32.0,30.55,WSW,252,7.0,7.0,14,0.00,BC,SCT,0.00,Misterhouse,2013-05-23 11:10:00,
2013-05-23 04:16:00,49.5,32.0,30.55,West,278,7.0,9.0,14,0.00,BC,SCT,0.00,Misterhouse,2013-05-23 11:16:00,
2013-05-23 04:20:00,47.8,32.0,30.55,West,262,5.0,5.0,14,0.00,BC,SCT,0.00,Misterhouse,2013-05-23 11:20:00,
2013-05-23 04:21:00,49.3,32.0,30.55,WNW,285,7.0,7.0,14,0.00,BC,SCT,0.00,Misterhouse,2013-05-23 11:21:00,
2013-05-23 04:25:00,48.4,32.0,30.55,WSW,254,6.0,8.0,14,0.00,BC,SCT,0.00,Misterhouse,2013-05-23 11:25:00,
2013-05-23 04:30:00,48.4,32.0,30.58,SW,229,7.0,7.0,14,0.00,BC,SCT,0.00,Misterhouse,2013-05-23 11:30:00,
2013-05-23 04:55:00,49.8,32.0,30.58,South,177,10.0,13.0,14,0.00,BC,SCT,0.00,Misterhouse,2013-05-23 11:55:00,
2013-05-23 05:01:00,48.7,32.0,30.55,West,273,6.0,6.0,14,0.00,BC,SCT,0.00,Misterhouse,2013-05-23 12:01:00,
2013-05-23 05:16:00,48.0,32.0,30.55,WSW,243,4.0,5.0,14,0.00,BC,SCT,0.00,Misterhouse,2013-05-23 12:16:00,
2013-05-23 05:36:00,48.9,32.0,30.58,WSW,251,6.0,6.0,14,0.00,BC,SCT,0.00,Misterhouse,2013-05-23 12:36:00,
2013-05-23 05:41:00,49.3,32.0,30.58,SW,221,6.0,6.0,14,0.00,BC,SCT,0.00,Misterhouse,2013-05-23 12:41:00,
2013-05-23 05:46:00,49.3,32.0,30.58,SSE,157,9.0,9.0,14,0.00,BC,SCT,0.00,Misterhouse,2013-05-23 12:46:00,
2013-05-23 06:01:00,49.6,32.0,30.58,SSW,212,11.0,11.0,14,0.00,BC,SCT,0.00,Misterhouse,2013-05-23 13:01:00,
2013-05-23 06:11:00,49.6,32.0,30.58,SSW,207,12.0,13.0,14,0.00,BC,SCT,0.00,Misterhouse,2013-05-23 13:11:00,
2013-05-23 06:16:00,49.8,32.0,30.58,SSW,208,13.0,13.0,14,0.00,BC,SCT,0.00,Misterhouse,2013-05-23 13:16:00,
2013-05-23 06:21:00,50.2,32.0,30.58,South,186,15.0,15.0,14,0.00,BC,SCT,0.00,Misterhouse,2013-05-23 13:21:00,
2013-05-23 06:31:00,50.5,32.0,30.58,SSW,199,12.0,12.0,14,0.00,BC,SCT,0.00,Misterhouse,2013-05-23 13:31:00,
2013-05-23 06:41:00,50.2,32.0,30.58,SW,215,12.0,12.0,14,0.00,BC,SCT,0.00,Misterhouse,2013-05-23 13:41:00,
2013-05-23 06:46:00,50.4,32.0,30.58,SSW,204,12.0,13.0,14,0.00,BC,SCT,0.00,Misterhouse,2013-05-23 13:46:00,
2013-05-23 06:56:00,50.5,32.0,30.58,SSW,196,10.0,11.0,14,0.00,BC,SCT,0.00,Misterhouse,2013-05-23 13:56:00,
2013-05-23 07:01:00,50.7,32.0,30.58,SSE,167,13.0,15.0,14,0.00,BC,SCT,0.00,Misterhouse,2013-05-23 14:01:00,
2013-05-23 07:11:00,50.9,32.0,30.58,South,189,10.0,10.0,14,0.00,BC,SCT,0.00,Misterhouse,2013-05-23 14:11:00,
2013-05-23 07:16:00,51.3,32.0,30.58,SW,214,9.0,9.0,14,0.00,BC,SCT,0.00,Misterhouse,2013-05-23 14:16:00,
2013-05-23 07:26:00,51.4,32.0,30.58,SSW,213,8.0,11.0,14,0.00,BC,SCT,0.00,Misterhouse,2013-05-23 14:26:00,
2013-05-23 07:31:00,51.6,32.0,30.58,WSW,257,12.0,12.0,14,0.00,BC,SCT,0.00,Misterhouse,2013-05-23 14:31:00,
2013-05-23 07:41:00,52.0,32.0,30.58,SSW,199,11.0,11.0,13,0.00,BC,SCT,0.00,Misterhouse,2013-05-23 14:41:00,
2013-05-23 07:46:00,52.2,32.0,30.58,SSW,206,10.0,10.0,13,0.00,BC,SCT,0.00,Misterhouse,2013-05-23 14:46:00,
2013-05-23 07:56:00,52.7,32.0,30.58,SSW,206,8.0,8.0,13,0.00,BC,SCT,0.00,Misterhouse,2013-05-23 14:56:00,
2013-05-23 08:01:00,53.1,32.0,30.58,West,273,10.0,10.0,13,0.00,BC,SCT,0.00,Misterhouse,2013-05-23 15:01:00,
2013-05-23 08:11:00,53.4,32.0,30.58,SSE,167,7.0,7.0,13,0.00,BC,SCT,0.00,Misterhouse,2013-05-23 15:11:00,
2013-05-23 08:16:00,53.1,32.0,30.58,SW,229,8.0,8.0,13,0.00,BC,SCT,0.00,Misterhouse,2013-05-23 15:16:00,
2013-05-23 08:21:00,53.4,32.0,30.58,SW,234,9.0,11.0,13,0.00,BC,SCT,0.00,Misterhouse,2013-05-23 15:21:00,
2013-05-23 08:26:00,53.2,32.0,30.58,WSW,248,11.0,11.0,13,0.00,BC,SCT,0.00,Misterhouse,2013-05-23 15:26:00,
2013-05-23 08:31:00,53.6,32.0,30.58,South,182,8.0,8.0,13,0.00,BC,SCT,0.00,Misterhouse,2013-05-23 15:31:00,
2013-05-23 08:36:00,54.3,32.0,30.58,SW,235,6.0,6.0,13,0.00,BC,SCT,0.00,Misterhouse,2013-05-23 15:36:00,
2013-05-23 08:41:00,54.1,32.0,30.58,SW,225,6.0,6.0,13,0.00,BC,SCT,0.00,Misterhouse,2013-05-23 15:41:00,
2013-05-23 08:46:00,54.9,32.0,30.58,West,266,7.0,8.0,13,0.00,BC,SCT,0.00,Misterhouse,2013-05-23 15:46:00,
2013-05-23 08:51:00,54.5,32.0,30.58,West,264,10.0,10.0,13,0.00,BC,SCT,0.00,Misterhouse,2013-05-23 15:51:00,
2013-05-23 08:56:00,55.2,32.0,30.58,West,270,8.0,8.0,13,0.00,BC,SCT,0.00,Misterhouse,2013-05-23 15:56:00,
2013-05-23 09:01:00,55.6,32.0,30.60,SW,218,10.0,13.0,12,0.00,BC,SCT,0.00,Misterhouse,2013-05-23 16:01:00,
2013-05-23 09:06:00,55.4,32.0,30.60,South,189,11.0,11.0,12,0.00,BC,SCT,0.00,Misterhouse,2013-05-23 16:06:00,
2013-05-23 09:11:00,55.8,32.0,30.60,WSW,247,10.0,10.0,12,0.00,BC,SCT,0.00,Misterhouse,2013-05-23 16:11:00,
2013-05-23 09:16:00,56.5,32.0,30.58,South,191,11.0,11.0,12,0.00,BC,SCT,0.00,Misterhouse,2013-05-23 16:16:00,
2013-05-23 09:21:00,56.7,32.0,30.58,SW,228,10.0,12.0,12,0.00,BC,SCT,0.00,Misterhouse,2013-05-23 16:21:00,
2013-05-23 09:26:00,55.9,32.0,30.58,South,189,12.0,12.0,12,0.00,BC,SCT,0.00,Misterhouse,2013-05-23 16:26:00,
2013-05-23 09:31:00,55.9,32.0,30.60,SSW,194,10.0,11.0,12,0.00,BC,SCT,0.00,Misterhouse,2013-05-23 16:31:00,
2013-05-23 09:36:00,56.5,32.0,30.60,SW,215,11.0,11.0,15,0.00,BC,SCT,0.00,Misterhouse,2013-05-23 16:36:00,
2013-05-23 09:41:00,57.0,32.0,30.60,West,267,9.0,11.0,17,0.00,BC,SCT,0.00,Misterhouse,2013-05-23 16:41:00,
2013-05-23 09:46:00,56.8,32.0,30.60,SW,218,15.0,15.0,20,0.00,BC,SCT,0.00,Misterhouse,2013-05-23 16:46:00,
2013-05-23 09:51:00,57.2,32.0,30.60,SW,225,12.0,12.0,22,0.00,BC,SCT,0.00,Misterhouse,2013-05-23 16:51:00,
2013-05-23 09:56:00,57.9,32.0,30.60,SSW,205,8.0,17.0,19,0.00,BC,SCT,0.00,Misterhouse,2013-05-23 16:56:00,
2013-05-23 10:01:00,57.7,32.0,30.60,South,190,10.0,15.0,19,0.00,BC,SCT,0.00,Misterhouse,2013-05-23 17:01:00,
2013-05-23 10:11:00,57.7,32.0,30.60,South,171,12.0,13.0,17,0.00,BC,SCT,0.00,Misterhouse,2013-05-23 17:11:00,
2013-05-23 10:16:00,58.3,32.0,30.60,SSE,164,11.0,11.0,19,0.00,BC,SCT,0.00,Misterhouse,2013-05-23 17:16:00,
2013-05-23 10:21:00,58.6,32.0,30.60,South,187,11.0,11.0,22,0.00,BC,SCT,0.00,Misterhouse,2013-05-23 17:21:00,
2013-05-23 10:26:00,59.2,32.0,30.60,South,178,8.0,14.0,19,0.00,BC,SCT,0.00,Misterhouse,2013-05-23 17:26:00,
2013-05-23 10:31:00,58.8,32.0,30.60,WNW,285,14.0,15.0,17,0.00,BC,SCT,0.00,Misterhouse,2013-05-23 17:31:00,
2013-05-23 10:36:00,59.0,32.0,30.60,South,179,11.0,11.0,19,0.00,BC,SCT,0.00,Misterhouse,2013-05-23 17:36:00,
2013-05-23 10:41:00,58.5,32.0,30.60,SSW,205,14.0,15.0,17,0.00,BC,SCT,0.00,Misterhouse,2013-05-23 17:41:00,
2013-05-23 10:46:00,59.4,32.0,30.60,West,278,10.0,12.0,17,0.00,BC,SCT,0.00,Misterhouse,2013-05-23 17:46:00,
2013-05-23 10:51:00,59.0,32.0,30.60,SSW,213,14.0,17.0,19,0.00,BC,SCT,0.00,Misterhouse,2013-05-23 17:51:00,
2013-05-23 10:56:00,60.1,32.0,30.60,West,267,10.0,15.0,17,0.00,BC,SCT,0.00,Misterhouse,2013-05-23 17:56:00,
2013-05-23 11:01:00,60.1,32.0,30.60,WSW,256,15.0,15.0,14,0.00,BC,SCT,0.00,Misterhouse,2013-05-23 18:01:00,
2013-05-23 11:11:00,60.4,32.0,30.60,South,178,14.0,14.0,14,0.00,BC,SCT,0.00,Misterhouse,2013-05-23 18:11:00,
2013-05-23 11:16:00,61.0,32.0,30.60,SSE,160,8.0,15.0,14,0.00,BC,SCT,0.00,Misterhouse,2013-05-23 18:16:00,
2013-05-23 11:21:00,61.3,32.0,30.60,South,169,14.0,14.0,14,0.00,BC,SCT,0.00,Misterhouse,2013-05-23 18:21:00,
2013-05-23 11:26:00,62.1,32.0,30.60,South,184,9.0,14.0,14,0.00,BC,SCT,0.00,Misterhouse,2013-05-23 18:26:00,
2013-05-23 11:31:00,61.5,32.0,30.60,SSE,151,12.0,16.0,14,0.00,BC,SCT,0.00,Misterhouse,2013-05-23 18:31:00,
2013-05-23 11:36:00,61.5,32.0,30.60,South,173,12.0,12.0,14,0.00,BC,SCT,0.00,Misterhouse,2013-05-23 18:36:00,
2013-05-23 11:41:00,61.2,32.0,30.60,SSW,207,15.0,20.0,16,0.00,BC,SCT,0.00,Misterhouse,2013-05-23 18:41:00,
2013-05-23 11:46:00,62.1,32.0,30.60,WSW,237,11.0,11.0,16,0.00,BC,SCT,0.00,Misterhouse,2013-05-23 18:46:00,
2013-05-23 11:51:00,61.7,32.0,30.60,South,189,11.0,11.0,16,0.00,BC,SCT,0.00,Misterhouse,2013-05-23 18:51:00,
2013-05-23 11:56:00,61.3,32.0,30.60,South,173,16.0,16.0,16,0.00,BC,SCT,0.00,Misterhouse,2013-05-23 18:56:00,
2013-05-23 12:01:00,62.1,32.0,30.60,SSW,203,9.0,17.0,14,0.00,BC,SCT,0.00,Misterhouse,2013-05-23 19:01:00,
2013-05-23 12:06:00,62.2,32.0,30.60,South,187,12.0,13.0,16,0.00,BC,SCT,0.00,Misterhouse,2013-05-23 19:06:00,
2013-05-23 12:11:00,62.2,32.0,30.60,WSW,255,11.0,11.0,16,0.00,BC,SCT,0.00,Misterhouse,2013-05-23 19:11:00,
2013-05-23 12:16:00,62.4,32.0,30.60,SSW,201,13.0,13.0,16,0.00,BC,SCT,0.00,Misterhouse,2013-05-23 19:16:00,
2013-05-23 12:21:00,63.1,32.0,30.60,SE,139,9.0,9.0,16,0.00,BC,SCT,0.00,Misterhouse,2013-05-23 19:21:00,
2013-05-23 12:26:00,63.0,32.0,30.60,WSW,243,10.0,11.0,13,0.00,BC,SCT,0.00,Misterhouse,2013-05-23 19:26:00,
2013-05-23 12:31:00,63.1,32.0,30.60,West,269,11.0,15.0,16,0.00,BC,SCT,0.00,Misterhouse,2013-05-23 19:31:00,
2013-05-23 12:36:00,63.1,32.0,30.60,South,179,9.0,9.0,16,0.00,BC,SCT,0.00,Misterhouse,2013-05-23 19:36:00,
2013-05-23 12:41:00,63.7,32.0,30.60,South,187,11.0,19.0,16,0.00,BC,SCT,0.00,Misterhouse,2013-05-23 19:41:00,
2013-05-23 12:46:00,63.1,32.0,30.60,SSW,203,11.0,11.0,16,0.00,BC,SCT,0.00,Misterhouse,2013-05-23 19:46:00,
2013-05-23 12:51:00,63.0,32.0,30.60,SW,231,8.0,8.0,16,0.00,BC,SCT,0.00,Misterhouse,2013-05-23 19:51:00,
2013-05-23 12:56:00,62.8,32.0,30.60,SSW,200,11.0,17.0,16,0.00,BC,SCT,0.00,Misterhouse,2013-05-23 19:56:00,
2013-05-23 13:01:00,63.7,32.0,30.60,SW,225,10.0,10.0,16,0.00,BC,SCT,0.00,Misterhouse,2013-05-23 20:01:00,
2013-05-23 13:11:00,64.0,32.0,30.60,WSW,250,9.0,10.0,16,0.00,BC,SCT,0.00,Misterhouse,2013-05-23 20:11:00,
2013-05-23 13:16:00,64.8,32.0,30.60,SSW,196,10.0,11.0,15,0.00,BC,SCT,0.00,Misterhouse,2013-05-23 20:16:00,
2013-05-23 13:21:00,64.2,32.0,30.60,South,171,13.0,15.0,16,0.00,BC,SCT,0.00,Misterhouse,2013-05-23 20:21:00,
2013-05-23 13:26:00,64.4,32.0,30.60,South,187,10.0,13.0,15,0.00,BC,SCT,0.00,Misterhouse,2013-05-23 20:26:00,
2013-05-23 13:31:00,64.8,32.0,30.60,SSW,192,10.0,13.0,18,0.00,BC,SCT,0.00,Misterhouse,2013-05-23 20:31:00,
2013-05-23 13:36:00,63.1,32.0,30.60,South,189,15.0,16.0,21,0.00,BC,SCT,0.00,Misterhouse,2013-05-23 20:36:00,
2013-05-23 13:41:00,63.3,32.0,30.60,South,187,13.0,18.0,18,0.00,BC,SCT,0.00,Misterhouse,2013-05-23 20:41:00,
2013-05-23 13:46:00,64.4,32.0,30.60,SW,223,8.0,12.0,18,0.00,BC,SCT,0.00,Misterhouse,2013-05-23 20:46:00,
2013-05-23 13:51:00,64.9,32.0,30.60,SSW,198,13.0,13.0,18,0.00,BC,SCT,0.00,Misterhouse,2013-05-23 20:51:00,
2013-05-23 13:56:00,64.0,32.0,30.60,WSW,253,15.0,15.0,18,0.00,BC,SCT,0.00,Misterhouse,2013-05-23 20:56:00,
2013-05-23 14:01:00,63.3,32.0,30.60,West,270,11.0,11.0,21,0.00,BC,SCT,0.00,Misterhouse,2013-05-23 21:01:00,
2013-05-23 14:06:00,63.9,32.0,30.60,SSW,210,9.0,14.0,23,0.00,BC,SCT,0.00,Misterhouse,2013-05-23 21:06:00,
2013-05-23 14:11:00,64.4,32.0,30.60,SSE,154,12.0,12.0,20,0.00,BC,SCT,0.00,Misterhouse,2013-05-23 21:11:00,
2013-05-23 14:16:00,64.2,32.0,30.60,SSW,210,11.0,20.0,24,0.00,BC,SCT,0.00,Misterhouse,2013-05-23 21:16:00,
2013-05-23 14:21:00,63.5,32.0,30.60,SSW,193,13.0,15.0,24,0.00,BC,SCT,0.00,Misterhouse,2013-05-23 21:21:00,
2013-05-23 14:26:00,63.7,32.0,30.60,WSW,242,9.0,10.0,24,0.00,BC,SCT,0.00,Misterhouse,2013-05-23 21:26:00,
2013-05-23 14:31:00,64.2,32.0,30.60,WSW,254,12.0,12.0,24,0.00,BC,SCT,0.00,Misterhouse,2013-05-23 21:31:00,
2013-05-23 14:36:00,64.6,32.0,30.60,SSW,213,14.0,14.0,23,0.00,BC,SCT,0.00,Misterhouse,2013-05-23 21:36:00,
2013-05-23 14:41:00,64.8,32.0,30.60,WNW,293,10.0,12.0,23,0.00,BC,SCT,0.00,Misterhouse,2013-05-23 21:41:00,
2013-05-23 14:46:00,64.6,32.0,30.60,South,169,9.0,11.0,23,0.00,BC,SCT,0.00,Misterhouse,2013-05-23 21:46:00,
2013-05-23 14:51:00,64.4,32.0,30.60,SSW,212,10.0,10.0,23,0.00,BC,SCT,0.00,Misterhouse,2013-05-23 21:51:00,
2013-05-23 14:56:00,64.2,32.0,30.60,WSW,238,15.0,15.0,23,0.00,BC,SCT,0.00,Misterhouse,2013-05-23 21:56:00,
2013-05-23 15:01:00,64.4,32.0,30.60,South,186,8.0,12.0,23,0.00,BC,SCT,0.00,Misterhouse,2013-05-23 22:01:00,
2013-05-23 15:06:00,64.8,32.0,30.60,SSW,200,15.0,15.0,23,0.00,BC,SCT,0.00,Misterhouse,2013-05-23 22:06:00,
2013-05-23 15:11:00,65.3,32.0,30.60,South,189,9.0,13.0,24,0.00,BC,SCT,0.00,Misterhouse,2013-05-23 22:11:00,
2013-05-23 15:16:00,64.8,32.0,30.60,SSW,204,9.0,9.0,24,0.00,BC,SCT,0.00,Misterhouse,2013-05-23 22:16:00,
2013-05-23 15:21:00,64.4,32.0,30.60,WSW,250,15.0,15.0,24,0.00,BC,SCT,0.00,Misterhouse,2013-05-23 22:21:00,
2013-05-23 15:26:00,63.9,32.0,30.60,WSW,258,15.0,15.0,25,0.00,BC,SCT,0.00,Misterhouse,2013-05-23 22:26:00,
2013-05-23 15:31:00,64.9,32.0,30.60,WSW,251,8.0,10.0,25,0.00,BC,SCT,0.00,Misterhouse,2013-05-23 22:31:00,
2013-05-23 15:41:00,64.9,32.0,30.60,SW,223,8.0,13.0,25,0.00,BC,SCT,0.00,Misterhouse,2013-05-23 22:41:00,
2013-05-23 15:46:00,64.2,32.0,30.60,SW,221,12.0,12.0,25,0.00,BC,SCT,0.00,Misterhouse,2013-05-23 22:46:00,
2013-05-23 15:51:00,64.9,32.0,30.60,WSW,244,12.0,12.0,24,0.00,BC,SCT,0.00,Misterhouse,2013-05-23 22:51:00,
2013-05-23 15:56:00,64.6,32.0,30.60,West,265,11.0,14.0,24,0.00,BC,SCT,0.00,Misterhouse,2013-05-23 22:56:00,
2013-05-23 16:01:00,64.6,32.0,30.60,SSW,192,10.0,15.0,24,0.00,BC,SCT,0.00,Misterhouse,2013-05-23 23:01:00,
2013-05-23 16:06:00,63.9,32.0,30.60,SSW,206,12.0,12.0,27,0.00,BC,SCT,0.00,Misterhouse,2013-05-23 23:06:00,
2013-05-23 16:11:00,64.0,32.0,30.60,South,176,11.0,13.0,26,0.00,BC,SCT,0.00,Misterhouse,2013-05-23 23:11:00,
2013-05-23 16:16:00,64.8,32.0,30.60,WSW,257,11.0,11.0,25,0.00,BC,SCT,0.00,Misterhouse,2013-05-23 23:16:00,
2013-05-23 16:21:00,64.0,32.0,30.60,West,276,10.0,10.0,26,0.00,BC,SCT,0.00,Misterhouse,2013-05-23 23:21:00,
2013-05-23 16:26:00,64.8,32.0,30.60,SSW,211,8.0,18.0,26,0.00,BC,SCT,0.00,Misterhouse,2013-05-23 23:26:00,
2013-05-23 16:31:00,64.2,32.0,30.60,WSW,250,13.0,13.0,27,0.00,BC,SCT,0.00,Misterhouse,2013-05-23 23:31:00,
2013-05-23 16:36:00,64.2,32.0,30.60,SSE,148,12.0,12.0,26,0.00,BC,SCT,0.00,Misterhouse,2013-05-23 23:36:00,
2013-05-23 16:41:00,64.2,32.0,30.60,SSW,205,9.0,9.0,26,0.00,BC,SCT,0.00,Misterhouse,2013-05-23 23:41:00,
2013-05-23 16:46:00,64.0,32.0,30.63,South,173,12.0,12.0,26,0.00,BC,SCT,0.00,Misterhouse,2013-05-23 23:46:00,
2013-05-23 16:51:00,64.4,32.0,30.63,SSW,201,6.0,6.0,27,0.00,BC,SCT,0.00,Misterhouse,2013-05-23 23:51:00,
2013-05-23 16:56:00,64.8,32.0,30.63,WSW,243,10.0,11.0,26,0.00,BC,SCT,0.00,Misterhouse,2013-05-23 23:56:00,
2013-05-23 17:01:00,64.4,32.0,30.63,SW,230,6.0,8.0,27,0.00,BC,SCT,0.00,Misterhouse,2013-05-24 00:01:00,
2013-05-23 17:06:00,64.0,32.0,30.63,WSW,258,10.0,10.0,27,0.00,BC,SCT,0.00,Misterhouse,2013-05-24 00:06:00,
2013-05-23 17:11:00,64.4,32.0,30.63,South,179,8.0,17.0,27,0.00,BC,SCT,0.00,Misterhouse,2013-05-24 00:11:00,
2013-05-23 17:16:00,63.9,32.0,30.63,SSW,209,11.0,12.0,28,0.00,BC,SCT,0.00,Misterhouse,2013-05-24 00:16:00,
2013-05-23 17:21:00,64.4,32.0,30.63,West,270,11.0,11.0,26,0.00,BC,SCT,0.00,Misterhouse,2013-05-24 00:21:00,
2013-05-23 17:31:00,64.2,32.0,30.60,SSW,203,8.0,8.0,27,0.00,BC,SCT,0.00,Misterhouse,2013-05-24 00:31:00,
2013-05-23 17:41:00,64.0,32.0,30.60,South,172,14.0,14.0,28,0.00,BC,SCT,0.00,Misterhouse,2013-05-24 00:41:00,
2013-05-23 17:46:00,64.4,32.0,30.60,WNW,283,6.0,8.0,27,0.00,BC,SCT,0.00,Misterhouse,2013-05-24 00:46:00,
2013-05-23 17:51:00,64.4,32.0,30.60,South,191,5.0,5.0,26,0.00,BC,SCT,0.00,Misterhouse,2013-05-24 00:51:00,
2013-05-23 17:56:00,64.8,32.0,30.60,SW,217,4.0,8.0,26,0.00,BC,SCT,0.00,Misterhouse,2013-05-24 00:56:00,
2013-05-23 18:01:00,63.9,32.0,30.60,WSW,258,10.0,11.0,27,0.00,BC,SCT,0.00,Misterhouse,2013-05-24 01:01:00,
2013-05-23 18:06:00,63.7,32.0,30.60,South,189,5.0,6.0,28,0.00,BC,SCT,0.00,Misterhouse,2013-05-24 01:06:00,
2013-05-23 18:11:00,64.0,32.0,30.60,South,190,8.0,8.0,27,0.00,BC,SCT,0.00,Misterhouse,2013-05-24 01:11:00,
2013-05-23 18:16:00,64.0,32.0,30.60,WSW,258,4.0,5.0,27,0.00,BC,SCT,0.00,Misterhouse,2013-05-24 01:16:00,
2013-05-23 18:21:00,63.9,32.0,30.60,West,273,8.0,11.0,28,0.00,BC,SCT,0.00,Misterhouse,2013-05-24 01:21:00,
2013-05-23 18:26:00,63.7,32.0,30.60,SSW,209,7.0,7.0,28,0.00,BC,SCT,0.00,Misterhouse,2013-05-24 01:26:00,
2013-05-23 18:31:00,62.6,32.0,30.60,WSW,239,9.0,9.0,30,0.00,BC,SCT,0.00,Misterhouse,2013-05-24 01:31:00,
2013-05-23 18:36:00,62.4,33.8,30.60,SSW,201,8.0,8.0,34,0.00,BC,SCT,0.00,Misterhouse,2013-05-24 01:36:00,
2013-05-23 18:41:00,62.2,33.8,30.60,South,185,11.0,11.0,34,0.00,BC,SCT,0.00,Misterhouse,2013-05-24 01:41:00,
2013-05-23 18:46:00,62.1,33.8,30.60,South,173,9.0,9.0,34,0.00,BC,SCT,0.00,Misterhouse,2013-05-24 01:46:00,
2013-05-23 18:51:00,61.7,33.8,30.60,WSW,247,8.0,8.0,34,0.00,BC,SCT,0.00,Misterhouse,2013-05-24 01:51:00,
2013-05-23 18:56:00,61.7,33.8,30.60,South,175,8.0,8.0,34,0.00,BC,SCT,0.00,Misterhouse,2013-05-24 01:56:00,
2013-05-23 19:01:00,61.3,33.8,30.60,West,261,6.0,8.0,35,0.00,BC,SCT,0.00,Misterhouse,2013-05-24 02:01:00,
2013-05-23 19:11:00,60.6,33.8,30.60,SW,231,9.0,15.0,37,0.00,BC,SCT,0.00,Misterhouse,2013-05-24 02:11:00,
2013-05-23 19:16:00,60.4,35.6,30.63,SW,217,11.0,11.0,38,0.00,BC,SCT,0.00,Misterhouse,2013-05-24 02:16:00,
2013-05-23 19:21:00,60.3,35.6,30.63,West,261,7.0,7.0,39,0.00,BC,SCT,0.00,Misterhouse,2013-05-24 02:21:00,
2013-05-23 19:26:00,60.1,35.6,30.63,SSW,193,10.0,10.0,40,0.00,BC,SCT,0.00,Misterhouse,2013-05-24 02:26:00,
2013-05-23 19:31:00,59.7,35.6,30.63,SW,214,8.0,11.0,41,0.00,BC,SCT,0.00,Misterhouse,2013-05-24 02:31:00,
2013-05-23 19:36:00,59.5,35.6,30.63,WSW,257,7.0,11.0,42,0.00,BC,SCT,0.00,Misterhouse,2013-05-24 02:36:00,
2013-05-23 19:41:00,59.4,37.4,30.63,SSW,202,9.0,12.0,43,0.00,BC,SCT,0.00,Misterhouse,2013-05-24 02:41:00,
2013-05-23 19:46:00,59.2,37.4,30.63,South,181,9.0,9.0,44,0.00,BC,SCT,0.00,Misterhouse,2013-05-24 02:46:00,
2013-05-23 19:51:00,59.0,37.4,30.63,SSW,210,8.0,15.0,45,0.00,BC,SCT,0.00,Misterhouse,2013-05-24 02:51:00,
2013-05-23 19:56:00,58.8,37.4,30.63,SW,215,11.0,11.0,46,0.00,BC,SCT,0.00,Misterhouse,2013-05-24 02:56:00,
2013-05-23 20:00:00,57.2,39.2,30.63,SSW,210,8.0,11.0,52,0.00,BC,SCT,0.00,Misterhouse,2013-05-24 03:00:00,
2013-05-23 20:01:00,58.6,37.4,30.63,South,187,10.0,15.0,46,0.00,BC,SCT,0.00,Misterhouse,2013-05-24 03:01:00,
2013-05-23 20:05:00,57.2,41.0,30.63,SSW,211,6.0,6.0,53,0.00,BC,SCT,0.00,Misterhouse,2013-05-24 03:05:00,
2013-05-23 20:10:00,57.2,41.0,30.63,South,173,7.0,7.0,53,0.00,BC,SCT,0.00,Misterhouse,2013-05-24 03:10:00,
2013-05-23 20:11:00,58.5,39.2,30.63,South,189,13.0,13.0,47,0.00,BC,SCT,0.00,Misterhouse,2013-05-24 03:11:00,
2013-05-23 20:15:00,57.0,41.0,30.63,SW,233,4.0,6.0,53,0.00,BC,SCT,0.00,Misterhouse,2013-05-24 03:15:00,
2013-05-23 20:16:00,58.3,39.2,30.63,West,268,9.0,11.0,47,0.00,BC,SCT,0.00,Misterhouse,2013-05-24 03:16:00,
2013-05-23 20:20:00,57.0,41.0,30.63,South,187,8.0,8.0,54,0.00,BC,SCT,0.00,Misterhouse,2013-05-24 03:20:00,
2013-05-23 20:21:00,58.1,39.2,30.63,West,261,9.0,9.0,48,0.00,BC,SCT,0.00,Misterhouse,2013-05-24 03:21:00,
2013-05-23 20:25:00,57.0,41.0,30.63,WSW,251,7.0,11.0,55,0.00,BC,SCT,0.00,Misterhouse,2013-05-24 03:25:00,
2013-05-23 20:26:00,57.9,37.4,30.63,SW,235,8.0,8.0,48,0.00,BC,SCT,0.00,Misterhouse,2013-05-24 03:26:00,
2013-05-23 20:30:00,57.0,41.0,30.66,SW,216,7.0,7.0,55,0.00,MI,SKC,0.00,Misterhouse,2013-05-24 03:30:00,
2013-05-23 20:31:00,57.9,37.4,30.63,SSW,202,9.0,9.0,49,0.00,BC,SCT,0.00,Misterhouse,2013-05-24 03:31:00,
2013-05-23 20:35:00,56.8,41.0,30.66,SSW,205,9.0,9.0,55,0.00,MI,SKC,0.00,Misterhouse,2013-05-24 03:35:00,
2013-05-23 20:36:00,57.7,37.4,30.63,SSW,194,9.0,13.0,49,0.00,BC,SCT,0.00,Misterhouse,2013-05-24 03:36:00,
2013-05-23 20:40:00,56.8,41.0,30.63,SW,223,8.0,8.0,54,0.00,MI,SKC,0.00,Misterhouse,2013-05-24 03:40:00,
2013-05-23 20:41:00,57.7,39.2,30.63,South,184,10.0,10.0,50,0.00,BC,SCT,0.00,Misterhouse,2013-05-24 03:41:00,
2013-05-23 20:45:00,56.8,41.0,30.63,SSW,210,7.0,8.0,55,0.00,MI,SKC,0.00,Misterhouse,2013-05-24 03:45:00,
2013-05-23 20:46:00,57.6,39.2,30.63,South,177,9.0,11.0,50,0.00,BC,SCT,0.00,Misterhouse,2013-05-24 03:46:00,
2013-05-23 20:50:00,56.5,39.2,30.63,SSW,212,6.0,6.0,51,0.00,MI,SKC,0.00,Misterhouse,2013-05-24 03:50:00,
2013-05-23 20:51:00,57.4,39.2,30.63,South,178,11.0,11.0,51,0.00,BC,SCT,0.00,Misterhouse,2013-05-24 03:51:00,
2013-05-23 20:55:00,56.3,37.4,30.63,South,173,8.0,12.0,46,0.00,MI,SKC,0.00,Misterhouse,2013-05-24 03:55:00,
2013-05-23 20:56:00,57.4,39.2,30.63,SSW,207,8.0,8.0,51,0.00,BC,SCT,0.00,Misterhouse,2013-05-24 03:56:00,
2013-05-23 21:00:00,56.3,33.8,30.66,SSW,193,7.0,8.0,42,0.00,MI,SKC,0.00,Misterhouse,2013-05-24 04:00:00,
2013-05-23 21:05:00,56.7,37.4,30.66,SSW,200,9.0,11.0,46,0.00,MI,SKC,0.00,Misterhouse,2013-05-24 04:05:00,
2013-05-23 21:10:00,56.3,35.6,30.66,South,191,8.0,8.0,45,0.00,MI,SKC,0.00,Misterhouse,2013-05-24 04:10:00,
2013-05-23 21:15:00,56.1,33.8,30.66,South,180,6.0,8.0,45,0.00,MI,SKC,0.00,Misterhouse,2013-05-24 04:15:00,
2013-05-23 21:20:00,55.9,33.8,30.66,South,191,4.0,8.0,45,0.00,MI,SKC,0.00,Misterhouse,2013-05-24 04:20:00,
2013-05-23 21:25:00,55.8,33.8,30.66,SSW,203,7.0,8.0,43,0.00,MI,SKC,0.00,Misterhouse,2013-05-24 04:25:00,
2013-05-23 21:30:00,55.4,32.0,30.66,South,178,8.0,8.0,40,0.00,MI,SKC,0.00,Misterhouse,2013-05-24 04:30:00,
2013-05-23 21:35:00,55.0,32.0,30.66,South,182,5.0,5.0,37,0.00,MI,SKC,0.00,Misterhouse,2013-05-24 04:35:00,
2013-05-23 21:40:00,55.0,32.0,30.66,South,180,4.0,5.0,36,0.00,MI,SKC,0.00,Misterhouse,2013-05-24 04:40:00,
2013-05-23 21:45:00,54.9,32.0,30.66,SSW,209,4.0,6.0,36,0.00,MI,SKC,0.00,Misterhouse,2013-05-24 04:45:00,
2013-05-23 21:50:00,54.5,32.0,30.66,SSW,203,5.0,6.0,29,0.00,MI,SKC,0.00,Misterhouse,2013-05-24 04:50:00,
2013-05-23 21:55:00,54.1,32.0,30.66,SSW,208,7.0,7.0,25,0.00,MI,SKC,0.00,Misterhouse,2013-05-24 04:55:00,
2013-05-23 22:00:00,54.1,32.0,30.63,SSW,196,5.0,6.0,25,0.00,MI,SKC,0.00,Misterhouse,2013-05-24 05:00:00,
2013-05-23 22:05:00,54.1,32.0,30.63,South,181,10.0,10.0,20,0.00,MI,SKC,0.00,Misterhouse,2013-05-24 05:05:00,
2013-05-23 22:10:00,54.1,32.0,30.63,South,177,10.0,10.0,18,0.00,MI,SKC,0.00,Misterhouse,2013-05-24 05:10:00,
2013-05-23 22:15:00,54.1,32.0,30.66,South,183,9.0,9.0,18,0.00,MI,SKC,0.00,Misterhouse,2013-05-24 05:15:00,
2013-05-23 22:20:00,54.0,32.0,30.66,SSW,213,8.0,11.0,15,0.00,MI,SKC,0.00,Misterhouse,2013-05-24 05:20:00,
2013-05-23 22:25:00,54.1,32.0,30.66,SSW,210,8.0,8.0,15,0.00,MI,SKC,0.00,Misterhouse,2013-05-24 05:25:00,
2013-05-23 22:30:00,53.8,32.0,30.66,SSW,204,9.0,9.0,18,0.00,MI,SKC,0.00,Misterhouse,2013-05-24 05:30:00,
2013-05-23 22:35:00,53.8,32.0,30.66,SSW,197,7.0,8.0,18,0.00,MI,SKC,0.00,Misterhouse,2013-05-24 05:35:00,
2013-05-23 22:40:00,53.8,32.0,30.66,South,188,7.0,7.0,18,0.00,MI,SKC,0.00,Misterhouse,2013-05-24 05:40:00,
2013-05-23 22:45:00,53.4,32.0,30.66,SSW,200,7.0,7.0,18,0.00,MI,SKC,0.00,Misterhouse,2013-05-24 05:45:00,
2013-05-23 22:50:00,53.6,32.0,30.66,SSW,194,8.0,9.0,18,0.00,MI,SKC,0.00,Misterhouse,2013-05-24 05:50:00,
2013-05-23 22:55:00,53.6,32.0,30.66,South,176,11.0,11.0,15,0.00,MI,SKC,0.00,Misterhouse,2013-05-24 05:55:00,
2013-05-23 23:00:00,53.6,32.0,30.66,SSE,168,8.0,8.0,15,0.00,MI,SKC,0.00,Misterhouse,2013-05-24 06:00:00,
2013-05-23 23:05:00,54.0,32.0,30.66,South,171,9.0,9.0,15,0.00,MI,SKC,0.00,Misterhouse,2013-05-24 06:05:00,
2013-05-23 23:10:00,53.6,32.0,30.66,South,189,8.0,8.0,15,0.00,MI,SKC,0.00,Misterhouse,2013-05-24 06:10:00,
2013-05-23 23:15:00,54.0,32.0,30.66,South,173,8.0,9.0,13,0.00,MI,SKC,0.00,Misterhouse,2013-05-24 06:15:00,
2013-05-23 23:20:00,53.6,32.0,30.66,South,170,7.0,7.0,13,0.00,MI,SKC,0.00,Misterhouse,2013-05-24 06:20:00,
2013-05-23 23:25:00,53.6,32.0,30.66,WSW,241,6.0,6.0,13,0.00,MI,SKC,0.00,Misterhouse,2013-05-24 06:25:00,
2013-05-23 23:30:00,53.1,32.0,30.66,SSW,203,5.0,8.0,13,0.00,MI,SKC,0.00,Misterhouse,2013-05-24 06:30:00,
2013-05-23 23:35:00,52.9,32.0,30.66,SSW,197,7.0,7.0,13,0.00,MI,SKC,0.00,Misterhouse,2013-05-24 06:35:00,
2013-05-23 23:40:00,53.2,32.0,30.66,South,191,5.0,8.0,13,0.00,MI,SKC,0.00,Misterhouse,2013-05-24 06:40:00,
2013-05-23 23:45:00,53.8,32.0,30.63,SSW,207,8.0,11.0,13,0.00,MI,SKC,0.00,Misterhouse,2013-05-24 06:45:00,
2013-05-23 23:50:00,54.3,32.0,30.63,South,179,9.0,9.0,13,0.00,MI,SKC,0.00,Misterhouse,2013-05-24 06:50:00,
2013-05-23 23:55:00,55.0,32.0,30.63,South,174,6.0,13.0,13,0.00,MI,SKC,0.00,Misterhouse,2013-05-24 06:55:00,